Showing default

OPS 9311 (IDSCS 1), 2215

Orbit data source: Space-Track

OPS 9311 (IDSCS 1), 2215 is a payload satellite owned by USAF SSD (US) in GEO that was launched on Thu, 16 Jun 1966 UTC via a TITAN IIIC launch vehicle from the Air Force Eastern Test Range (AFETR). Payloads include a variety of satellites, spacecraft, and rockets equipped with specific instruments for various scientific and technological missions. These include communications satellites like Starlink; space stations such as the ISS; scientific satellites like the Hubble; Earth observation satellites from companies like Planet Labs, Umbra, and HawkEye 360; GPS; miniature CubeSats for education and research; and military/defense satellites.

Not visible in the next 10 days
OPS 9311 (IDSCS 1) details
Identifier
2215, 1966-053B
Orbit
GEO
Last TLE update6 days ago
Origin
Flag of USUSAF SSD (US)
ManufacturerPhilco-Ford WDL
MissionNon-operational Defense Communications
Bus & MotorIDCSP, Unknown motor
Mass45 kg wet, 45 kg dry
Launch date (UTC)
1966-06-16 (59 years ago)
Launch vehicle
TITAN IIIC
Launch site
Air Force Eastern Test Range (AFETR)
Object type
Payload
Rocket body
Debris
Shape & HBRIco Poly, 0.9 m
Radar Cross Section0.926 m², Medium (>0.1 m² and < 1m²)

Expand to show TLE details & history

TLE from 6 days ago
0 OPS 9311 (IDSCS 1)
1 02215U 66053B   25034.26538537 -.00000058  00000-0  00000-0 0  9997
2 02215   7.7445  48.1616 0031401 212.0636 147.8413  1.07907992128984
Epoch: 2025-02-03T06:22Z
Definitive object data (Epoch: 2025-02-03T06:22:09.295Z)
Latitude-0.00002°
Longitude179.04326°
Altitude33,879.072 km
Speed3.143 km/s
True Right ascension03h 13m 04s
True Declination0° 00' 00"
Sunlit
Object was in daylight at TLE epoch
Visualization TLE readout
Latitude-4.22996°
Longitude146.19397°
Altitude33,825.355 km
Speed3.147 km/s
Apparent Right ascension01h 28m 29s
Apparent Declination-9° 40' 14"
Sunlit
Object is in daylight
Visualization observer readout
Local Sidereal Time18:19:28
Azimuth86.428° E
Elevation-19.392°
Doppler factor1
Orbital elements
Apogee altitude33,900.321 km
Perigee altitude33,648.156 km
Semi-major axis40,152.375 km
Eccentricity0.0031401
Inclination7.7445°
RAAN48.1616°
Arg. of periapsis212.0636°
True anomaly148.03219°
Mean anomaly147.8413°
Eccentric anomaly147.93681°
Mean motion0.26976 °/min
BSTARUnknown
Orbital period1334.52 mins
Loading historical data...
2215 neighbors
Authenticating...
Loading maneuver chart data...
Loading historical data...
Loading historical data...
Loading historical data...
Loading historical data...
Loading historical data...
Loading historical data...
Loading historical data...

OPS 9311 (IDSCS 1) Visibility forecast

Observer location: undefined°, undefined

OPS 9311 (IDSCS 1) is not visible in the next 10 days
Span
Click to sort rows by Start time (UTC) header in descending order
Start Az.
Max El. time (UTC)
Max El. Az.
Max El.
End time (UTC)
End Az.
|